Hanford, CA

5:25 PM PDT on August 25, 2016 (GMT -0700)
Hanford Municipal

Weather History for KHJO - February, 2013

Change the Weather History Date:

Tuesday, February 19, 2013

  Actual Average Record
Temperature  
Mean Temperature 46 °F 51 °F  
Max Temperature 54 °F 63 °F 72 °F (2015)
Min Temperature 38 °F 40 °F 33 °F (2009)
Degree Days  
Heating Degree Days 19    
Month to date heating degree days 323  
Since 1 July heating degree days 1900  
Cooling Degree Days 0    
Month to date cooling degree days 0  
Year to date cooling degree days 0  
Moisture  
Dew Point 37 °F    
Average Humidity 75    
Maximum Humidity 100    
Minimum Humidity 50    
Precipitation  
Precipitation 0.21 in 0.07 in 0.50 in (1998)
Month to date precipitation 0.42 1.12  
Year to date precipitation 0.67 3.16  
Since 1 July precipitation 2.67  
Snow  
Snow 0.00 in - - ()
Month to date snowfall 0.0  
Since 1 July snowfall 0.0  
Snow Depth 0.00 in    
Sea Level Pressure  
Sea Level Pressure 29.86 in    
Wind  
Wind Speed 5 mph (NNW)    
Max Wind Speed 24 mph    
Max Gust Speed 35 mph    
Visibility 9 miles    
Events Rain    
T = Trace of Precipitation, MM = Missing Value Source: NWS Daily Summary

Daily Weather History Graph

Daily Weather History Graph

Search for Another Location

Airport or City:

Trip Planner

Search our weather history database for the weather conditions in past years. The results will help you decide how hot, cold, wet, or windy it might be!

Date:

Astronomy

Feb. 19, 2013 Rise Set
Actual Time 6:41 AM PST 5:43 PM PST
Civil Twilight 6:15 AM PST 6:10 PM PST
Nautical Twilight 5:45 AM PST 6:40 PM PST
Astronomical Twilight 5:15 AM PST 7:09 PM PST
Moon 12:24 PM PST (2/19) 2:11 AM PST (2/19)
Length of Visible Light 11h 55m
Length of Day
11h 02m
Waxing Gibbous, 68% of the Moon is Illuminated
Feb 19
Waxing Gibbous
Feb 25
Full
Mar 4
Last Quarter
Mar 11
New
Mar 19
First Quarter

Hourly Weather History & Observations

Time (PST) Temp. Windchill Dew Point Humidity Pressure Visibility Wind Dir Wind Speed Gust Speed Precip Events Conditions
12:53 AM 48.0 °F - 37.9 °F 68% 29.97 in 10.0 mi NW 6.9 mph - N/A   Overcast
1:53 AM 48.0 °F - 37.9 °F 68% 29.96 in 10.0 mi NNW 5.8 mph - N/A   Overcast
2:53 AM 48.0 °F - 37.9 °F 68% 29.96 in 10.0 mi NNW 8.1 mph - N/A   Overcast
3:53 AM 48.0 °F - 37.0 °F 66% 29.96 in 10.0 mi NNW 8.1 mph - N/A   Overcast
4:53 AM 48.0 °F - 36.0 °F 63% 29.96 in 10.0 mi North 4.6 mph - N/A   Overcast
5:53 AM 48.0 °F - 36.0 °F 63% 29.96 in 10.0 mi NNW 3.5 mph - N/A   Overcast
6:53 AM 46.9 °F - 37.0 °F 68% 29.96 in 10.0 mi NW 3.5 mph - N/A   Overcast
7:53 AM 48.9 °F - 36.0 °F 61% 29.96 in 10.0 mi NNW 6.9 mph - N/A   Mostly Cloudy
8:53 AM 50.0 °F - 36.0 °F 59% 29.96 in 10.0 mi North 3.5 mph - N/A   Partly Cloudy
10:53 AM 52.0 °F - 36.0 °F 54% 29.94 in 10.0 mi WNW 3.5 mph - N/A   Mostly Cloudy
11:53 AM 52.0 °F - 35.1 °F 53% 29.90 in 10.0 mi Calm Calm - N/A   Partly Cloudy
12:53 PM 52.0 °F - 35.1 °F 53% 29.86 in 10.0 mi SE 5.8 mph - N/A   Clear
1:53 PM 53.1 °F - 35.1 °F 50% 29.82 in 10.0 mi ESE 6.9 mph - N/A   Clear
2:53 PM 53.1 °F - 35.1 °F 50% 29.79 in 10.0 mi SE 6.9 mph - N/A   Overcast
4:53 PM 48.0 °F - 42.1 °F 80% 29.74 in 6.0 mi South 6.9 mph - 0.02 in Rain Light Rain
5:19 PM 42.8 °F 35.4 °F 37.4 °F 81% 29.75 in 2.5 mi West 15.0 mph 21.9 mph 0.08 in Rain Rain
5:22 PM 42.8 °F 35.8 °F 37.4 °F 81% 29.75 in 3.0 mi West 13.8 mph 20.7 mph 0.08 in Rain Rain
5:53 PM 42.1 °F 34.9 °F 37.9 °F 85% 29.77 in 10.0 mi WNW 13.8 mph 23.0 mph 0.13 in Rain Light Rain
6:09 PM 41.0 °F 33.9 °F 37.4 °F 87% 29.75 in 10.0 mi NNW 12.7 mph - 0.01 in Rain Light Rain
6:53 PM 41.0 °F 35.8 °F 37.0 °F 86% 29.77 in 10.0 mi NNW 8.1 mph - 0.06 in Rain Light Rain
7:41 PM 41.0 °F 36.4 °F 37.4 °F 87% 29.77 in 10.0 mi NNW 6.9 mph - 0.00 in   Overcast
7:53 PM 41.0 °F 36.4 °F 37.9 °F 89% 29.78 in 10.0 mi NNW 6.9 mph - 0.00 in   Overcast
8:53 PM 39.9 °F 35.8 °F 37.0 °F 89% 29.78 in 10.0 mi North 5.8 mph - 0.00 in   Mostly Cloudy
9:53 PM 39.9 °F - 37.0 °F 89% 29.81 in 10.0 mi Calm Calm - N/A   Mostly Cloudy
10:53 PM 37.9 °F - 37.0 °F 97% 29.82 in 10.0 mi Calm Calm - N/A   Overcast
11:53 PM 37.9 °F - 37.0 °F 97% 29.82 in 10.0 mi Calm Calm - N/A   Mostly Cloudy